Simultaneous Nadir Overpasses (SNOs) Predictions

Prediction of SNOs between NPP and TERRA Satellite Orbit:

Table of predicted SNOs for the next 14.0 days since TLE Epoch: 3/2/2024
Index Date (NPP) Time (NPP) Lat,Lon (NPP) SZA (NPP ) Date (TERRA) Time (TERRA) Lat,Lon (TERRA) SZA (TERRA ) Distance(km) Time Diff (sec)
1 03/03/2024 04:32:49 71.82, 105.43 78.60 03/03/2024 04:33:05 71.79, 105.39 78.58 3.16 16
2 03/03/2024 05:23:31 -71.73, -87.09 101.51 03/03/2024 05:22:30 -71.70, -87.11 101.53 3.19 61
3 03/05/2024 16:35:56 -71.82, 104.64 102.37 03/05/2024 16:36:17 -71.82, 104.59 102.38 2.00 21
4 03/05/2024 17:26:41 71.77, -87.94 77.56 03/05/2024 17:25:38 71.75, -87.86 77.55 3.58 63
5 03/08/2024 04:39:04 71.81, 103.87 76.65 03/08/2024 04:39:24 71.84, 103.81 76.67 3.36 20
6 03/08/2024 05:29:46 -71.72, -88.64 103.47 03/08/2024 05:28:49 -71.74, -88.70 103.44 2.85 57
7 03/10/2024 16:42:12 -71.88, 102.97 104.27 03/10/2024 16:42:35 -71.86, 103.02 104.30 2.69 23
8 03/10/2024 17:32:55 71.73, -89.43 75.55 03/10/2024 17:31:57 71.74, -89.52 75.58 3.53 58
9 03/13/2024 04:45:21 71.89, 102.17 74.75 03/13/2024 04:45:42 71.89, 102.25 74.74 2.87 21
10 03/13/2024 05:36:03 -71.80, -90.34 105.37 03/13/2024 05:35:07 -71.79, -90.26 105.37 2.82 56
11 03/15/2024 16:48:27 -71.87, 101.44 106.28 03/15/2024 16:48:53 -71.86, 101.37 106.29 2.40 26
12 03/15/2024 17:39:12 71.82, -91.16 73.66 03/15/2024 17:38:14 71.80, -91.06 73.65 3.78 58



Historial Predications of SNOs between NPP and TERRA
